Location: Nairn
(57.5833°N, 3.8667°W)
Time: 10:04:56
(UTC+00:00)

N. Korean satellite - Pass Details

Date: 05 November 2020
Orbit: 452 x 504 km, 97.2° (Epoch: 25 November)

Event Time Altitude Azimuth Distance (km) Brightness Sun altitude
Rises 06:05:52 0° 14° (NNE) 2,483 10.2 -12.4°
Reaches altitude 10° 06:07:55 10° 15° (NNE) 1,604 9.3 -12.1°
Maximum altitude 06:11:21 86° 103° (ESE) 464 6.4 -11.7°
Drops below altitude 10° 06:14:47 10° 195° (SSW) 1,599 9.2 -11.2°
Sets 06:16:49 0° 195° (SSW) 2,473 10.1 -11.0°
